• In Russia
  • List of Countries
  • For 7 days
  • Water Temperature
  • Satellite Maps
  • Weather Map
  • Weather Widgets
  • user-avatar
    Login

    Hourly Weather Przyslop

    Today, 23 July, Tuesday

    Time Temperature Precipitation Wind Pressure Humidity
    00:00 +15°C° 0.2 mm 1 mps 687 mmHg 85%
    01:00 +14°C° 0 mm 0 mps 687 mmHg 87%
    02:00 +15°C° 0.3 mm 1 mps 687 mmHg 90%
    03:00 +14°C° 0.3 mm 1 mps 687 mmHg 92%
    04:00 +14°C° 0.3 mm 1 mps 686 mmHg 95%
    05:00 +14°C° 0.4 mm 1 mps 687 mmHg 96%
    06:00 +14°C° 0.4 mm 1 mps 687 mmHg 97%
    07:00 +14°C° 0.4 mm 1 mps 687 mmHg 98%
    08:00 +14°C° 0.5 mm 1 mps 687 mmHg 98%
    09:00 +14°C° 0.5 mm 1 mps 687 mmHg 98%
    10:00 +14°C° 0.5 mm 1 mps 687 mmHg 98%
    11:00 +14°C° 0.2 mm 1 mps 687 mmHg 97%
    12:00 +14°C° 0.2 mm 1 mps 687 mmHg 97%
    13:00 +14°C° 0.2 mm 1 mps 687 mmHg 97%
    14:00 +15°C° 0.1 mm 1 mps 687 mmHg 97%
    15:00 +15°C° 0.1 mm 1 mps 687 mmHg 96%
    16:00 +15°C° 0.1 mm 1 mps 687 mmHg 96%
    17:00 +15°C° 0.1 mm 1 mps 687 mmHg 96%
    18:00 +15°C° 0.1 mm 1 mps 686 mmHg 97%
    19:00 +15°C° 0.1 mm 1 mps 686 mmHg 97%
    20:00 +14°C° 0 mm 1 mps 686 mmHg 97%
    21:00 +14°C° 0 mm 1 mps 686 mmHg 97%
    22:00 +13°C° 0 mm 0 mps 686 mmHg 97%
    23:00 +14°C° 0.5 mm 1 mps 686 mmHg 97%

    Tomorrow, 24 July, Wednesday

    Time Temperature Precipitation Wind Pressure Humidity
    00:00 +14°C° 0.5 mm 1 mps 686 mmHg 98%
    01:00 +14°C° 0.5 mm 1 mps 686 mmHg 98%
    02:00 +14°C° 0.1 mm 1 mps 686 mmHg 98%
    03:00 +14°C° 0.1 mm 1 mps 686 mmHg 97%
    04:00 +14°C° 0.1 mm 1 mps 686 mmHg 97%
    05:00 +15°C° 0.1 mm 1 mps 686 mmHg 97%
    06:00 +15°C° 0.1 mm 1 mps 686 mmHg 96%
    07:00 +16°C° 0.1 mm 1 mps 686 mmHg 96%
    08:00 +18°C° 0.5 mm 1 mps 686 mmHg 92%
    09:00 +18°C° 0.5 mm 2 mps 686 mmHg 88%
    10:00 +19°C° 0.5 mm 2 mps 687 mmHg 84%
    11:00 +20°C° 0.7 mm 2 mps 687 mmHg 82%
    12:00 +20°C° 0.7 mm 2 mps 687 mmHg 80%
    13:00 +20°C° 0.7 mm 3 mps 686 mmHg 78%
    14:00 +20°C° 0.4 mm 2 mps 686 mmHg 77%
    15:00 +21°C° 0.4 mm 2 mps 686 mmHg 77%
    16:00 +21°C° 0.4 mm 2 mps 686 mmHg 76%
    17:00 +20°C° 0.2 mm 1 mps 686 mmHg 81%
    18:00 +19°C° 0.2 mm 1 mps 686 mmHg 86%
    19:00 +16°C° 0.2 mm 0 mps 685 mmHg 91%
    20:00 +15°C° 0 mm 0 mps 686 mmHg 92%
    21:00 +14°C° 0 mm 0 mps 686 mmHg 93%
    22:00 +14°C° 0 mm 0 mps 686 mmHg 93%
    23:00 +13°C° 0 mm 0 mps 686 mmHg 93%

    Day after tomorrow, 25 July, Thursday

    Time Temperature Precipitation Wind Pressure Humidity
    00:00 +13°C° 0 mm 0 mps 686 mmHg 93%
    01:00 +13°C° 0 mm 0 mps 686 mmHg 93%
    02:00 +13°C° 0 mm 0 mps 686 mmHg 93%
    03:00 +12°C° 0 mm 0 mps 686 mmHg 94%
    04:00 +12°C° 0 mm 0 mps 686 mmHg 94%
    05:00 +14°C° 0 mm 0 mps 686 mmHg 91%
    06:00 +15°C° 0 mm 0 mps 686 mmHg 88%
    07:00 +17°C° 0 mm 0 mps 687 mmHg 85%
    08:00 +19°C° 0 mm 0 mps 687 mmHg 76%
    09:00 +22°C° 0 mm 1 mps 687 mmHg 68%
    10:00 +24°C° 0 mm 1 mps 688 mmHg 60%
    11:00 +24°C° 0.1 mm 1 mps 688 mmHg 58%
    12:00 +25°C° 0.1 mm 1 mps 687 mmHg 56%
    13:00 +25°C° 0.1 mm 1 mps 687 mmHg 55%
    14:00 +25°C° 0.2 mm 2 mps 687 mmHg 58%
    15:00 +24°C° 0.2 mm 2 mps 686 mmHg 62%
    16:00 +24°C° 0.2 mm 2 mps 686 mmHg 66%
    17:00 +21°C° 0.1 mm 2 mps 686 mmHg 73%
    18:00 +21°C° 0.1 mm 1 mps 685 mmHg 79%
    19:00 +17°C° 0.1 mm 0 mps 685 mmHg 85%
    20:00 +16°C° 0 mm 0 mps 685 mmHg 87%
    21:00 +15°C° 0 mm 0 mps 685 mmHg 89%
    22:00 +14°C° 0 mm 0 mps 684 mmHg 91%
    23:00 +14°C° 0 mm 0 mps 684 mmHg 92%

    26 July, Friday

    Time Temperature Precipitation Wind Pressure Humidity
    00:00 +14°C° 0 mm 0 mps 684 mmHg 92%
    01:00 +13°C° 0 mm 0 mps 684 mmHg 93%
    02:00 +13°C° 0 mm 0 mps 684 mmHg 93%
    03:00 +13°C° 0 mm 0 mps 683 mmHg 94%
    04:00 +12°C° 0 mm 0 mps 683 mmHg 94%
    05:00 +14°C° 0.1 mm 0 mps 683 mmHg 92%
    06:00 +16°C° 0.1 mm 1 mps 683 mmHg 89%
    07:00 +19°C° 0.1 mm 1 mps 684 mmHg 87%
    08:00 +20°C° 0.1 mm 1 mps 684 mmHg 78%
    09:00 +20°C° 0.1 mm 2 mps 684 mmHg 70%
    10:00 +21°C° 0.1 mm 2 mps 684 mmHg 61%
    11:00 +21°C° 0.1 mm 2 mps 684 mmHg 60%
    12:00 +21°C° 0.1 mm 2 mps 683 mmHg 59%
    13:00 +22°C° 0.1 mm 3 mps 683 mmHg 59%
    14:00 +21°C° 0.3 mm 3 mps 683 mmHg 63%
    15:00 +20°C° 0.3 mm 2 mps 682 mmHg 68%
    16:00 +20°C° 0.3 mm 2 mps 682 mmHg 72%
    17:00 +18°C° 0.2 mm 2 mps 682 mmHg 78%
    18:00 +18°C° 0.2 mm 1 mps 681 mmHg 84%
    19:00 +15°C° 0.2 mm 1 mps 681 mmHg 90%
    20:00 +15°C° 0 mm 1 mps 681 mmHg 92%
    21:00 +14°C° 0 mm 1 mps 681 mmHg 93%
    22:00 +13°C° 0 mm 1 mps 681 mmHg 94%
    23:00 +12°C° 0 mm 1 mps 680 mmHg 94%

    27 July, Saturday

    Time Temperature Precipitation Wind Pressure Humidity
    00:00 +12°C° 0 mm 1 mps 680 mmHg 95%
    01:00 +12°C° 0 mm 1 mps 680 mmHg 95%
    02:00 +10°C° 0 mm 0 mps 680 mmHg 95%
    03:00 +10°C° 0 mm 0 mps 679 mmHg 95%
    04:00 +10°C° 0 mm 0 mps 679 mmHg 95%
    05:00 +12°C° 0 mm 1 mps 680 mmHg 92%
    06:00 +14°C° 0 mm 1 mps 680 mmHg 89%
    07:00 +15°C° 0 mm 1 mps 680 mmHg 86%
    08:00 +16°C° 0 mm 2 mps 681 mmHg 78%
    09:00 +18°C° 0 mm 2 mps 681 mmHg 70%
    10:00 +19°C° 0 mm 3 mps 681 mmHg 62%
    11:00 +20°C° 0 mm 3 mps 681 mmHg 60%
    12:00 +20°C° 0 mm 4 mps 681 mmHg 59%
    13:00 +21°C° 0 mm 4 mps 681 mmHg 58%
    14:00 +21°C° 0 mm 4 mps 680 mmHg 60%
    15:00 +20°C° 0 mm 4 mps 680 mmHg 62%
    16:00 +20°C° 0 mm 4 mps 680 mmHg 65%
    17:00 +19°C° 0 mm 3 mps 679 mmHg 73%
    18:00 +17°C° 0 mm 2 mps 679 mmHg 81%
    19:00 +16°C° 0 mm 2 mps 679 mmHg 89%
    20:00 +15°C° 0 mm 1 mps 679 mmHg 91%
    21:00 +14°C° 0 mm 1 mps 678 mmHg 93%
    22:00 +13°C° 0 mm 1 mps 678 mmHg 95%
    23:00 +13°C° 0 mm 1 mps 678 mmHg 95%

    28 July, Sunday

    Time Temperature Precipitation Wind Pressure Humidity
    00:00 +12°C° 0 mm 1 mps 678 mmHg 95%
    01:00 +11°C° 0 mm 0 mps 678 mmHg 95%
    02:00 +11°C° 0 mm 0 mps 677 mmHg 95%
    03:00 +11°C° 0 mm 0 mps 677 mmHg 95%
    04:00 +11°C° 0 mm 0 mps 677 mmHg 96%
    05:00 +13°C° 0 mm 1 mps 677 mmHg 96%
    06:00 +13°C° 0 mm 1 mps 678 mmHg 95%
    07:00 +14°C° 0 mm 1 mps 678 mmHg 95%
    08:00 +15°C° 0.2 mm 2 mps 678 mmHg 92%
    09:00 +16°C° 0.2 mm 2 mps 678 mmHg 88%
    10:00 +17°C° 0.2 mm 3 mps 679 mmHg 84%
    11:00 +18°C° 0.1 mm 3 mps 679 mmHg 79%
    12:00 +19°C° 0.1 mm 4 mps 679 mmHg 73%
    13:00 +20°C° 0.1 mm 4 mps 679 mmHg 68%
    14:00 +20°C° 0.1 mm 4 mps 679 mmHg 69%
    15:00 +20°C° 0.1 mm 4 mps 679 mmHg 69%
    16:00 +20°C° 0.1 mm 4 mps 679 mmHg 70%
    17:00 +19°C° 0 mm 3 mps 679 mmHg 75%
    18:00 +18°C° 0 mm 2 mps 679 mmHg 81%
    19:00 +16°C° 0 mm 2 mps 679 mmHg 86%
    20:00 +15°C° 0 mm 1 mps 679 mmHg 89%
    21:00 +15°C° 0 mm 1 mps 679 mmHg 92%
    22:00 +14°C° 0 mm 1 mps 679 mmHg 94%
    23:00 +14°C° 0 mm 1 mps 679 mmHg 95%
    Show more